TimeMDT,TemperatureF,Dew PointF,Humidity,Sea Level PressureIn,VisibilityMPH,Wind Direction,Wind SpeedMPH,Gust SpeedMPH,PrecipitationIn,Events,Conditions,WindDirDegrees,DateUTC
12:15 AM,50.0,44.6,82,30.28,10.0,North,5.8,-,N/A,,Overcast,360,2013-09-13 06:15:00
12:35 AM,50.0,44.6,82,30.27,10.0,NE,4.6,-,N/A,,Overcast,40,2013-09-13 06:35:00
12:55 AM,50.0,44.6,82,30.27,10.0,NE,3.5,-,N/A,,Overcast,40,2013-09-13 06:55:00
1:15 AM,48.2,44.6,87,30.26,10.0,NNE,5.8,-,N/A,,Overcast,30,2013-09-13 07:15:00
1:35 AM,46.4,44.6,93,30.25,0.5,North,5.8,-,N/A,Fog,Fog,10,2013-09-13 07:35:00
1:55 AM,48.2,46.4,93,30.25,10.0,NNE,4.6,-,N/A,,Unknown,20,2013-09-13 07:55:00
2:15 AM,50.0,44.6,82,30.25,10.0,NE,4.6,-,N/A,,Unknown,50,2013-09-13 08:15:00
2:35 AM,50.0,46.4,87,30.25,10.0,NE,3.5,-,N/A,,Unknown,50,2013-09-13 08:35:00
2:55 AM,48.2,46.4,93,30.23,5.0,ENE,4.6,-,N/A,,Overcast,60,2013-09-13 08:55:00
3:15 AM,48.2,46.4,93,30.23,3.0,Calm,Calm,-,N/A,,Mist,0,2013-09-13 09:15:00
3:35 AM,48.2,46.4,93,30.23,0.5,Calm,Calm,-,N/A,Fog,Fog,0,2013-09-13 09:35:00
3:55 AM,50.0,48.2,94,30.23,0.5,Calm,Calm,-,N/A,Fog,Fog,0,2013-09-13 09:55:00
4:15 AM,48.2,48.2,100,30.21,0.8,North,3.5,-,N/A,,Mist,360,2013-09-13 10:15:00
4:35 AM,48.2,46.4,93,30.23,5.0,Calm,Calm,-,N/A,,Mostly Cloudy,0,2013-09-13 10:35:00
4:55 AM,48.2,46.4,93,30.21,7.0,NNE,3.5,-,N/A,,Overcast,30,2013-09-13 10:55:00
5:15 AM,48.2,46.4,93,30.22,7.0,NE,4.6,-,N/A,,Overcast,40,2013-09-13 11:15:00
5:35 AM,48.2,46.4,93,30.21,1.2,NNE,3.5,-,N/A,,Mostly Cloudy,20,2013-09-13 11:35:00
5:55 AM,48.2,48.2,100,30.21,0.8,Calm,Calm,-,N/A,,Mostly Cloudy,0,2013-09-13 11:55:00
6:15 AM,50.0,48.2,94,30.20,10.0,Calm,Calm,-,N/A,,Overcast,0,2013-09-13 12:15:00
6:35 AM,50.0,48.2,94,30.20,7.0,Calm,Calm,-,N/A,,Overcast,0,2013-09-13 12:35:00
6:55 AM,50.0,48.2,94,30.19,1.5,WNW,3.5,-,N/A,,Mostly Cloudy,300,2013-09-13 12:55:00
7:15 AM,48.2,46.4,93,30.19,0.2,NW,3.5,-,N/A,Fog,Fog,310,2013-09-13 13:15:00
7:35 AM,48.2,46.4,93,30.19,0.2,ESE,4.6,-,N/A,Fog,Fog,110,2013-09-13 13:35:00
7:55 AM,50.0,48.2,94,30.19,0.2,East,4.6,-,N/A,Fog,Fog,90,2013-09-13 13:55:00
8:15 AM,50.0,48.2,94,30.19,0.2,ENE,3.5,-,N/A,Fog,Fog,70,2013-09-13 14:15:00
8:35 AM,50.0,48.2,94,30.20,0.2,Calm,Calm,-,N/A,Fog,Fog,0,2013-09-13 14:35:00
8:55 AM,48.2,48.2,100,30.20,0.2,Calm,Calm,-,N/A,Fog,Fog,0,2013-09-13 14:55:00
9:15 AM,48.2,48.2,100,30.20,0.2,Calm,Calm,-,N/A,Fog,Fog,0,2013-09-13 15:15:00
9:35 AM,50.0,48.2,94,30.20,0.2,SSE,3.5,-,N/A,Fog,Fog,150,2013-09-13 15:35:00
9:55 AM,50.0,48.2,94,30.20,0.5,South,4.6,-,N/A,,Unknown,170,2013-09-13 15:55:00
10:15 AM,50.0,48.2,94,30.20,10.0,Calm,Calm,-,N/A,Thunderstorm,Thunderstorm,0,2013-09-13 16:15:00
10:35 AM,50.0,50.0,100,30.19,10.0,Calm,Calm,-,N/A,Thunderstorm,Overcast,0,2013-09-13 16:35:00
10:55 AM,50.0,46.4,87,30.19,10.0,Calm,Calm,-,N/A,,Overcast,0,2013-09-13 16:55:00
11:15 AM,50.0,48.2,94,30.18,10.0,Calm,Calm,-,N/A,,Light Drizzle,0,2013-09-13 17:15:00
11:35 AM,51.8,46.4,82,30.18,10.0,SW,6.9,-,N/A,Thunderstorm,Drizzle,220,2013-09-13 17:35:00
11:55 AM,51.8,46.4,82,30.17,10.0,WSW,5.8,-,N/A,,Drizzle,240,2013-09-13 17:55:00
12:15 PM,51.8,46.4,82,30.16,10.0,West,5.8,-,N/A,Rain,Light Rain,260,2013-09-13 18:15:00
12:35 PM,53.6,44.6,72,30.16,10.0,West,4.6,-,N/A,,Overcast,260,2013-09-13 18:35:00
12:55 PM,53.6,42.8,67,30.15,10.0,West,5.8,-,N/A,Rain,Light Rain,280,2013-09-13 18:55:00
1:15 PM,55.4,44.6,67,30.15,10.0,West,9.2,-,N/A,,Overcast,280,2013-09-13 19:15:00
1:35 PM,53.6,42.8,67,30.15,10.0,WNW,8.1,-,N/A,,Overcast,290,2013-09-13 19:35:00
1:55 PM,53.6,42.8,67,30.15,10.0,NW,8.1,-,N/A,Thunderstorm,Overcast,310,2013-09-13 19:55:00
2:15 PM,55.4,44.6,67,30.13,10.0,NW,10.4,-,N/A,Thunderstorm,Overcast,310,2013-09-13 20:15:00
2:35 PM,57.2,42.8,59,30.12,10.0,NNW,10.4,16.1,N/A,Thunderstorm,Unknown,330,2013-09-13 20:35:00
2:55 PM,59.0,41.0,51,30.12,10.0,NW,6.9,-,N/A,,Unknown,310,2013-09-13 20:55:00
3:15 PM,59.0,41.0,51,30.12,10.0,Calm,Calm,-,N/A,,Unknown,0,2013-09-13 21:15:00
3:35 PM,57.2,39.2,51,30.12,10.0,Calm,Calm,-,N/A,Thunderstorm,Unknown,0,2013-09-13 21:35:00
3:55 PM,60.8,41.0,48,30.10,10.0,SSW,3.5,-,N/A,,Unknown,200,2013-09-13 21:55:00
4:15 PM,60.8,41.0,48,30.10,10.0,SW,5.8,-,N/A,,Unknown,220,2013-09-13 22:15:00
4:35 PM,60.8,42.8,52,30.10,10.0,SSW,5.8,-,N/A,,Unknown,210,2013-09-13 22:35:00
4:55 PM,60.8,42.8,52,30.10,10.0,SW,5.8,-,N/A,,Overcast,220,2013-09-13 22:55:00
5:15 PM,60.8,44.6,55,30.09,10.0,SW,5.8,-,N/A,,Overcast,220,2013-09-13 23:15:00
5:35 PM,59.0,44.6,59,30.09,10.0,South,4.6,-,N/A,,Overcast,190,2013-09-13 23:35:00
5:55 PM,59.0,44.6,59,30.09,10.0,South,8.1,-,N/A,,Overcast,190,2013-09-13 23:55:00
6:15 PM,59.0,44.6,59,30.08,10.0,South,8.1,-,N/A,,Overcast,190,2013-09-14 00:15:00
6:35 PM,59.0,44.6,59,30.08,10.0,South,8.1,-,N/A,,Overcast,190,2013-09-14 00:35:00
6:55 PM,57.2,44.6,63,30.09,10.0,South,10.4,-,N/A,Thunderstorm,Thunderstorm,190,2013-09-14 00:55:00
7:15 PM,55.4,44.6,67,30.09,10.0,SSW,5.8,-,N/A,Thunderstorm,Thunderstorm,200,2013-09-14 01:15:00
7:35 PM,53.6,46.4,77,30.09,10.0,WSW,8.1,-,N/A,,Overcast,250,2013-09-14 01:35:00
7:55 PM,53.6,44.6,72,30.09,10.0,West,8.1,-,N/A,,Overcast,260,2013-09-14 01:55:00
8:15 PM,53.6,42.8,67,30.08,10.0,West,3.5,-,N/A,,Overcast,260,2013-09-14 02:15:00
8:35 PM,53.6,42.8,67,30.09,10.0,WSW,4.6,-,N/A,Thunderstorm,Overcast,240,2013-09-14 02:35:00
8:55 PM,53.6,42.8,67,30.09,10.0,WSW,3.5,-,N/A,,Overcast,240,2013-09-14 02:55:00
9:15 PM,53.6,42.8,67,30.09,10.0,WSW,5.8,-,N/A,,Overcast,250,2013-09-14 03:15:00
9:35 PM,51.8,42.8,71,30.09,10.0,WSW,5.8,-,N/A,,Overcast,250,2013-09-14 03:35:00
9:55 PM,51.8,42.8,71,30.09,10.0,West,5.8,-,N/A,,Overcast,260,2013-09-14 03:55:00
10:15 PM,53.6,42.8,67,30.09,10.0,WSW,5.8,-,N/A,,Overcast,250,2013-09-14 04:15:00
10:35 PM,51.8,42.8,71,30.09,10.0,West,4.6,-,N/A,,Overcast,260,2013-09-14 04:35:00
10:55 PM,53.6,42.8,67,30.09,10.0,West,5.8,-,N/A,,Overcast,270,2013-09-14 04:55:00
11:15 PM,53.6,42.8,67,30.09,10.0,West,5.8,-,N/A,,Overcast,280,2013-09-14 05:15:00
11:35 PM,53.6,42.8,67,30.09,10.0,West,5.8,-,N/A,,Overcast,270,2013-09-14 05:35:00
11:55 PM,53.6,42.8,67,30.09,10.0,West,3.5,-,N/A,,Overcast,260,2013-09-14 05:55:00